This is the latest recevied weather packets stored in our database for station/object AK4NG. If no packets are shown the sender has not sent any weather packets the latest 10 day(s).
| Time | Temp. | Humidity | Pressure | Rain* | Wind** | Luminosity | Snow |
|---|---|---|---|---|---|---|---|
| 1777980864 | 11.11° C | 91% | 1015.6 hPa | 0 mm | - | 32 W/m² | - |
| 1777980560 | 11.11° C | 92% | 1015.4 hPa | 0 mm | - | 23 W/m² | - |
| 1777980258 | 10.56° C | 93% | 1015.4 hPa | 0 mm | - | 21 W/m² | - |
| 1777979954 | 10.56° C | 94% | 1015.1 hPa | 0 mm | - | 19 W/m² | - |
| 1777979649 | 10° C | 96% | 1015.1 hPa | 0 mm | - | 14 W/m² | - |
| 1777979346 | 10° C | 96% | 1015.2 hPa | 0 mm | - | 11 W/m² | - |
| 1777979043 | 10° C | 96% | 1015.3 hPa | 0 mm | - | 7 W/m² | - |
| 1777978740 | 10° C | 96% | 1015.2 hPa | 0 mm | - | 4 W/m² | - |
| 1777978436 | 10° C | 95% | 1015.3 hPa | 0 mm | - | 3 W/m² | - |
| 1777978132 | 10° C | 95% | 1015.2 hPa | 0 mm | - | 1 W/m² | - |
| 1777977829 | 10° C | 95% | 1014.9 hPa | 0 mm | - | 0 W/m² | - |
| 1777977526 | 10° C | 95% | 1015 hPa | 0 mm | - | 0 W/m² | - |
| 1777977224 | 10° C | 95% | 1015 hPa | 0 mm | - | 0 W/m² | - |
| 1777976921 | 10° C | 95% | 1015.1 hPa | 0 mm | - | 0 W/m² | - |
| 1777976618 | 10° C | 95% | 1014.5 hPa | 0 mm | - | 0 W/m² | - |
| 1777976313 | 10° C | 95% | 1014.7 hPa | 0 mm | - | 0 W/m² | - |
| 1777976008 | 10° C | 95% | 1015.2 hPa | 0 mm | - | 0 W/m² | - |
| 1777975704 | 10° C | 94% | 1015 hPa | 0 mm | - | 0 W/m² | - |
| 1777975401 | 10° C | 94% | 1014.9 hPa | 0 mm | - | 0 W/m² | - |
| 1777975097 | 10° C | 94% | 1015 hPa | 0 mm | - | 0 W/m² | - |
| 1777974794 | 10° C | 94% | 1014.9 hPa | 0 mm | - | 0 W/m² | - |
| 1777974490 | 10° C | 93% | 1014.9 hPa | 0 mm | - | 0 W/m² | - |
| 1777974187 | 10° C | 93% | 1015.2 hPa | 0 mm | - | 0 W/m² | - |
| 1777973882 | 10.56° C | 93% | 1015.1 hPa | 0 mm | - | 0 W/m² | - |
| 1777973581 | 10.56° C | 93% | 1014.9 hPa | 0 mm | - | 0 W/m² | - |
* Rain latest hour (hover to see other rain measurements)
** Current wind speed in m/s (hover to see current wind gust speed)